This demonstration page uses our WeatherBlox Daily Observations layout. Learn more.

Left ArrowRight Arrow

Hourly Observations for February 10, 2016

Temp ( °F °C ) Dew Point ( °F °C ) Humidity (%) Winds ( mph kmh ) Pressure ( in mb ) Visibility ( mi km ) Precip ( " mm )
12:51 am 00:51 Clear 48 8.9 24 -4.4 39 39 E 9 15 30.2 1023 10 16.0934 N/A
1:51 am 01:51 Clear 46 7.8 24 -4.4 42 42 E 7 11 30.21 1023 10 16.0934 N/A
2:51 am 02:51 Clear 40 4.4 23 -5 51 51 N N/A 30.23 1024 10 16.0934 N/A
3:51 am 03:51 Clear 48 8.9 25 -3.9 41 41 ESE 7 11 30.21 1023 10 16.0934 N/A
4:51 am 04:51 Clear 47 8.3 24 -4.4 41 41 SE 8 13 30.22 1023 10 16.0934 N/A
5:51 am 05:51 Clear 44 6.7 24 -4.4 45 45 E 8 13 30.25 1024 10 16.0934 N/A
6:51 am 06:51 Clear 38 3.3 24 -4.4 57 57 W 7 11 30.3 1026 10 16.0934 N/A
7:51 am 07:51 Sunny 41 5 24 -4.4 51 51 N N/A 30.33 1027 10 16.0934 N/A
8:51 am 08:51 Sunny 50 10 25 -3.9 38 38 SE 9 15 30.32 1027 10 16.0934 N/A
9:51 am 09:51 Sunny 58 14.4 23 -5 26 26 SE 12 19 30.31 1027 10 16.0934 N/A
10:51 am 10:51 Sunny 64 17.8 22 -5.6 20 20 SE 12 19 30.29 1026 10 16.0934 N/A
11:51 am 11:51 Sunny 66 18.9 23 -5 19 19 S 7 11 30.26 1025 10 16.0934 N/A
12:51 pm 12:51 Sunny 69 20.6 22 -5.6 17 17 SSE 8 13 30.21 1023 10 16.0934 N/A
1:51 pm 13:51 Sunny 71 21.7 22 -5.6 16 16 S 6 9 30.17 1022 10 16.0934 N/A
2:51 pm 14:51 Sunny 73 22.8 19 -7.2 13 13 N N/A 30.15 1021 10 16.0934 N/A
3:51 pm 15:51 Sunny 73 22.8 17 -8.3 12 12 S 3 6 30.12 1020 10 16.0934 N/A
4:51 pm 16:51 Sunny 73 22.8 18 -7.8 12 12 S 5 7 30.11 1020 10 16.0934 N/A
5:51 pm 17:51 Sunny 69 20.6 19 -7.2 15 15 W 3 6 30.13 1020 10 16.0934 N/A
6:51 pm 18:51 Clear 57 13.9 21 -6.1 25 25 N N/A 30.16 1021 10 16.0934 N/A
7:51 pm 19:51 Clear 56 13.3 21 -6.1 26 26 ENE 5 7 30.15 1021 10 16.0934 N/A
8:51 pm 20:51 Clear 51 10.6 22 -5.6 32 32 ESE 5 7 30.15 1021 10 16.0934 N/A
9:51 pm 21:51 Clear 50 10 22 -5.6 33 33 N N/A 30.15 1021 10 16.0934 N/A
10:51 pm 22:51 Clear 48 8.9 23 -5 37 37 SSW 3 6 30.14 1021 10 16.0934 N/A
11:51 pm 23:51 Clear 45 7.2 23 -5 42 42 SE 3 6 30.15 1021 10 16.0934 N/A

Powered by AerisWeather